User: anonymous
Location: Oshawa
(43.9000°N, 78.8670°W)
Time: 01:46:12
(UTC-04:00)
Language:

IDEFIX/ARIANE 42P - Orbit

View from above orbital plane
View from above orbital plane
View from above satellite
View from above satellite

Ground track
Ground track

The orbit data is extracted from the following two-line orbital elements,

1 27422U 02021B   14212.78104596  .00000077  00000-0  46515-4 0  5492
2 27422 098.2973 253.1420 0013706 111.7528 020.0499 14.29035755636501
Epoch (UTC): 31 July 2014 18:44:42
Eccentricity: 0.0013706
inclination: 98.2973°
perigee height: 785 km
apogee height: 805 km
right ascension of ascending node: 253.1420°
argument of perigee: 111.7528°
revolutions per day: 14.29035755
mean anomaly at epoch: 20.0499°
orbit number at epoch: 63650

The dashed part of the orbit path shows where the satellite is in the earth's shadow,  

DLR